CSS (TIANHE)

Last updated on Tue Jan 14 2025 00:02:07 GMT+0000 (Coordinated Universal Time)

1 48274U 21035A 25013.19209345 .00012894 00000+0 17122-3 0 9999 2 48274 41.4647 243.5957 0004193 287.5312 72.5068 15.57996993211930
UTC large
Height (km)
Speed (km/s)
/
Latitude / Longitude
Inclination (degrees)
Orbital Period (minutes)
Azimuth
Elevation
Range (km)
Doppler Factor

Next 0 passes for location: London (51.5072 / 0.1276)

Sorry there are no passes over London.